Regional Weather Roundup
Issued by NWS

Home | Current Version | Previous Version | Graphics & Text | Print | Product List | Glossary On
Versions: 1 2 3 4 5 6 7 8 9 10 11 12 13 14 15 16 17 18 19 20 21 22 23 24 25 26 27 28 29 30 31 32 33 34 35 36 37 38 39 40 41 42 43 44 45 46 47 48 49 50
000
ASUS43 KLSX 012159
RWRMO

WEATHER SUMMARY FOR MISSOURI
NATIONAL WEATHER SERVICE SPRINGFIELD MO
500 PM CDT WED APR 01 2015

NOTE: "FAIR" INDICATES FEW OR NO CLOUDS BELOW 12,000 FEET WITH NO
       SIGNIFICANT WEATHER AND/OR OBSTRUCTIONS TO VISIBILITY.
       CURRENT SKY AND/OR WEATHER CONDITIONS ARE NOT AVAILABLE FOR
       CHILLICOTHE AND FARMINGTON.

MOZ001>031-035>038-043-044-053-054-012300-
...NORTHERN AND WESTERN MISSOURI...

CITY           SKY/WX    TMP DP  RH WIND       PRES   REMARKS
KANSAS CTY INT MOSUNNY   78  53  41 S24G30    29.73S
KANSAS C DTWN  LGT RAIN  77  53  43 S24G33    29.75S
LEE`S SUMMIT   LGT RAIN  69  57  65 S23G29    29.78R
ST JOSEPH      MOSUNNY   78  53  41 S23G31    29.69F
CHILLICOTHE      N/A     78  52  40 S23G31    29.75F
KIRKSVILLE     MOSUNNY   78  45  30 S22G31    29.79F

$$
MOZ066>068-077>081-088>096-101>105-012300-
...SOUTHWEST MISSOURI...

CITY           SKY/WX    TMP DP  RH WIND       PRES   REMARKS
SPRINGFIELD    CLOUDY    63  60  90 SE15      29.84F
JOPLIN         MOSUNNY   70  61  73 SE8       29.80F

$$
MOZ032>034-039>042-045>050-055>058-069>072-012300-
...CENTRAL MISSOURI...

CITY           SKY/WX    TMP DP  RH WIND       PRES   REMARKS
COLUMBIA       CLOUDY    73  44  35 S14G31    29.85F
JEFFERSON CITY CLOUDY    72  47  40 SW25G32   29.86S
ROLLA          LGT RAIN  64  51  62 S9        29.89F
SEDALIA        CLOUDY    66  56  70 S24G32    29.83F
OSAGE BEACH    CLOUDY    61  55  82 S12       29.92R

$$
MOZ051-052-059>065-012300-
...EAST CENTRAL MISSOURI...

CITY           SKY/WX    TMP DP  RH WIND       PRES   REMARKS
ST LOUIS INTL  PTSUNNY   77  38  24 SE20G29   29.91F
SPIRIT OF STL  PTSUNNY   75  38  26 S9G18     29.88F
ST CHARLES     SUNNY     74  38  27 S20G30    29.89F

$$
MOZ072>076-082>087-097>100-106>115-012300-
...SOUTH CENTRAL AND SOUTHEAST MISSOURI...

CITY           SKY/WX    TMP DP  RH WIND       PRES   REMARKS
CAPE GIRARDEAU CLOUDY    72  43  35 SE9       29.95F
FARMINGTON     CLOUDY    72  41  33 S16       29.98S
POPLAR BLUFF   CLOUDY    70  51  51 S7        29.95S
WEST PLAINS    CLOUDY    65  57  75 S12       29.94S

$$


USA.gov is the U.S. government's official web portal to all federal, state and local government web resources and services.